Amory, MS

2:30 AM CST on December 10, 2016 (GMT -0600)
Aberdeen / Amory

Weather History for KM40 - July, 2013

Change the Weather History Date:

Thursday, July 4, 2013

  Actual Average (KCBM) Record (KCBM)
Temperature  
Mean Temperature 75 °F -  
Max Temperature 82 °F 89 °F 98 °F (2012)
Min Temperature 68 °F 69 °F 60 °F (1996)
Cooling Degree Days 10    
Growing Degree Days 25 (Base 50)    
Moisture  
Dew Point 58 °F    
Average Humidity 55    
Maximum Humidity 58    
Minimum Humidity 53    
Precipitation  
Precipitation 0.01 in - - ()
Sea Level Pressure  
Sea Level Pressure 30.03 in    
Wind  
Wind Speed 1 mph (East)    
Max Wind Speed 8 mph    
Max Gust Speed -    
Visibility 8 miles    
Events Rain    
Averages and records for this station are not official NWS values.
T = Trace of Precipitation, MM = Missing Value Source: NWS Daily Summary

Daily Weather History Graph

Daily Weather History Graph

Search for Another Location

Airport or City:

Trip Planner

Search our weather history database for the weather conditions in past years. The results will help you decide how hot, cold, wet, or windy it might be!

Date:

Astronomy

Jul. 04, 2013 Rise Set
Actual Time 5:48 AM CDT 8:08 PM CDT
Civil Twilight 5:19 AM CDT 8:37 PM CDT
Nautical Twilight 4:43 AM CDT 9:12 PM CDT
Astronomical Twilight 4:04 AM CDT 9:51 PM CDT
Moon 3:01 AM CDT (7/4) 5:15 PM CDT (7/4)
Length of Visible Light 15h 18m
Length of Day
14h 20m
Waning Crescent, 11% of the Moon is Illuminated
Jul 4
Waning Crescent
Jul 8
New
Jul 15
First Quarter
Jul 22
Full
Jul 29
Last Quarter

Hourly Weather History & Observations

Time (CDT) Temp. Heat Index Dew Point Humidity Pressure Visibility Wind Dir Wind Speed Gust Speed Precip Events Conditions
12:15 AM 71.6 °F - 55.4 °F 57% 30.05 in 8.0 mi Calm Calm - N/A   Clear
12:35 AM 71.6 °F - 55.4 °F 57% 30.05 in 9.0 mi Calm Calm - N/A   Partly Cloudy
12:55 AM 71.6 °F - 53.6 °F 53% 30.05 in 8.0 mi Calm Calm - N/A   Partly Cloudy
1:15 AM 69.8 °F - 53.6 °F 56% 30.05 in 5.0 mi Calm Calm - N/A   Haze
1:35 AM 69.8 °F - 53.6 °F 56% 30.04 in 7.0 mi Calm Calm - N/A   Scattered Clouds
1:55 AM 69.8 °F - 53.6 °F 56% 30.04 in 6.0 mi Calm Calm - N/A   Haze
2:15 AM 69.8 °F - 51.8 °F 53% 30.03 in 4.0 mi Calm Calm - N/A   Haze
2:35 AM 69.8 °F - 53.6 °F 56% 30.03 in 7.0 mi Calm Calm - N/A   Partly Cloudy
2:55 AM 69.8 °F - 53.6 °F 56% 30.03 in 7.0 mi Calm Calm - N/A   Partly Cloudy
3:15 AM 69.8 °F - 53.6 °F 56% 30.03 in 7.0 mi Calm Calm - N/A   Partly Cloudy
3:35 AM 69.8 °F - 53.6 °F 56% 30.03 in 6.0 mi Calm Calm - N/A   Haze
3:55 AM 69.8 °F - 53.6 °F 56% 30.03 in 6.0 mi Calm Calm - N/A   Haze
4:15 AM 69.8 °F - 53.6 °F 56% 30.03 in 6.0 mi Calm Calm - N/A   Haze
4:35 AM 69.8 °F - 53.6 °F 56% 30.02 in 5.0 mi Calm Calm - N/A   Haze
4:55 AM 69.8 °F - 53.6 °F 56% 30.03 in 6.0 mi Calm Calm - N/A   Haze
5:15 AM 69.8 °F - 51.8 °F 53% 30.02 in 4.0 mi Calm Calm - N/A   Haze
5:35 AM 69.8 °F - 51.8 °F 53% 30.03 in 1.8 mi Calm Calm - N/A   Haze
5:55 AM 68.0 °F - 51.8 °F 56% 30.03 in 2.5 mi Calm Calm - N/A   Haze
6:15 AM 69.8 °F - 53.6 °F 56% 30.03 in 5.0 mi Calm Calm - N/A   Haze
6:35 AM 71.6 °F - 53.6 °F 53% 30.04 in 3.0 mi Calm Calm - N/A   Haze
6:55 AM 71.6 °F - 55.4 °F 57% 30.03 in 4.0 mi Calm Calm - N/A   Haze
7:15 AM 73.4 °F - 55.4 °F 53% 30.04 in 5.0 mi Calm Calm - N/A   Haze
7:35 AM 73.4 °F - 55.4 °F 53% 30.04 in 5.0 mi Calm Calm - N/A   Haze
7:55 AM 73.4 °F - 57.2 °F 57% 30.04 in 7.0 mi Calm Calm - N/A   Mostly Cloudy
8:15 AM 75.2 °F - 57.2 °F 53% 30.05 in 9.0 mi Calm Calm - N/A   Mostly Cloudy
8:35 AM 75.2 °F - 57.2 °F 53% 30.05 in 2.5 mi Calm Calm - N/A   Light Drizzle
8:55 AM 75.2 °F - 57.2 °F 53% 30.05 in 4.0 mi Calm Calm - N/A   Haze
9:15 AM 75.2 °F - 59.0 °F 57% 30.05 in 9.0 mi Calm Calm - N/A   Mostly Cloudy
9:35 AM 77.0 °F - 60.8 °F 57% 30.05 in 9.0 mi Calm Calm - N/A   Mostly Cloudy
9:55 AM 78.8 °F - 60.8 °F 54% 30.05 in 10.0 mi Calm Calm - N/A   Mostly Cloudy
10:15 AM 78.8 °F - 60.8 °F 54% 30.05 in 7.0 mi Calm Calm - N/A   Mostly Cloudy
10:35 AM 78.8 °F - 60.8 °F 54% 30.05 in 8.0 mi Calm Calm - N/A   Overcast
10:55 AM 78.8 °F - 62.6 °F 57% 30.04 in 6.0 mi Calm Calm - N/A   Haze
11:15 AM 80.6 °F 82.3 °F 64.4 °F 58% 30.04 in 10.0 mi ENE 3.5 mph - N/A   Mostly Cloudy
11:35 AM 80.6 °F 82.3 °F 64.4 °F 58% 30.05 in 9.0 mi Calm Calm - N/A   Scattered Clouds
11:55 AM 82.4 °F 83.9 °F 64.4 °F 54% 30.04 in 9.0 mi ENE 3.5 mph - N/A   Partly Cloudy
12:15 PM 82.4 °F 83.9 °F 64.4 °F 54% 30.04 in 10.0 mi East 4.6 mph - N/A   Mostly Cloudy
12:35 PM 80.6 °F 82.3 °F 64.4 °F 58% 30.04 in 10.0 mi East 8.1 mph - N/A   Mostly Cloudy
12:55 PM 78.8 °F - 60.8 °F 54% 30.04 in 7.0 mi ESE 6.9 mph - N/A   Partly Cloudy
1:15 PM 77.0 °F - 60.8 °F 57% 30.04 in 9.0 mi ESE 5.8 mph - N/A   Partly Cloudy
1:35 PM 75.2 °F - 57.2 °F 53% 30.04 in 5.0 mi ESE 3.5 mph - N/A   Light Drizzle
1:55 PM 73.4 °F - 57.2 °F 57% 30.04 in 1.8 mi Calm Calm - 0.01 in Rain Rain
2:15 PM 73.4 °F - 57.2 °F 57% 30.02 in 4.0 mi ESE 3.5 mph - N/A   Light Drizzle
2:35 PM 73.4 °F - 57.2 °F 57% 30.02 in 9.0 mi ESE 4.6 mph - N/A   Partly Cloudy
2:55 PM 75.2 °F - 57.2 °F 53% 30.01 in 6.0 mi ESE 6.9 mph - N/A   Haze
3:15 PM 75.2 °F - 59.0 °F 57% 30.00 in 10.0 mi East 5.8 mph - N/A   Partly Cloudy
3:35 PM 78.8 °F - 60.8 °F 54% 30.00 in 8.0 mi East 5.8 mph - N/A   Partly Cloudy
3:55 PM 78.8 °F - 62.6 °F 57% 30.00 in 9.0 mi East 4.6 mph - N/A   Partly Cloudy
4:15 PM 80.6 °F 81.8 °F 62.6 °F 54% 30.00 in 10.0 mi ESE 3.5 mph - N/A   Partly Cloudy
4:35 PM 78.8 °F - 62.6 °F 57% 30.00 in 10.0 mi East 3.5 mph - N/A   Partly Cloudy
4:55 PM 80.6 °F 81.8 °F 62.6 °F 54% 29.99 in 10.0 mi ENE 3.5 mph - N/A   Scattered Clouds
5:15 PM 80.6 °F 81.8 °F 62.6 °F 54% 29.99 in 10.0 mi East 5.8 mph - N/A   Mostly Cloudy
5:35 PM 78.8 °F - 62.6 °F 57% 29.99 in 10.0 mi East 3.5 mph - N/A   Partly Cloudy
5:55 PM 78.8 °F - 62.6 °F 57% 29.99 in 10.0 mi ENE 3.5 mph - N/A   Clear
6:15 PM 78.8 °F - 62.6 °F 57% 29.99 in 10.0 mi East 3.5 mph - N/A   Clear
6:35 PM 80.6 °F 81.8 °F 62.6 °F 54% 29.98 in 9.0 mi ENE 3.5 mph - N/A   Partly Cloudy
6:55 PM 78.8 °F - 62.6 °F 57% 29.98 in 10.0 mi NE 3.5 mph - N/A   Partly Cloudy
7:15 PM 78.8 °F - 60.8 °F 54% 29.98 in 9.0 mi Calm Calm - N/A   Partly Cloudy
7:35 PM 78.8 °F - 60.8 °F 54% 29.99 in 10.0 mi NE 3.5 mph - N/A   Partly Cloudy
7:55 PM 77.0 °F - 60.8 °F 57% 30.00 in 10.0 mi Calm Calm - N/A   Partly Cloudy
8:15 PM 75.2 °F - 59.0 °F 57% 30.00 in 10.0 mi East 3.5 mph - N/A   Scattered Clouds
8:35 PM 75.2 °F - 57.2 °F 53% 29.99 in 10.0 mi East 3.5 mph - N/A   Clear
8:55 PM 73.4 °F - 57.2 °F 57% 30.00 in 10.0 mi East 4.6 mph - N/A   Clear
9:15 PM 73.4 °F - 57.2 °F 57% 30.01 in 10.0 mi Calm Calm - N/A   Clear
9:35 PM 73.4 °F - 55.4 °F 53% 30.02 in 10.0 mi East 3.5 mph - N/A   Clear
9:55 PM 73.4 °F - 55.4 °F 53% 30.03 in 10.0 mi Calm Calm - N/A   Mostly Cloudy
10:15 PM 71.6 °F - 55.4 °F 57% 30.03 in 10.0 mi Calm Calm - N/A   Scattered Clouds
10:35 PM 71.6 °F - 53.6 °F 53% 30.03 in 10.0 mi Calm Calm - N/A   Partly Cloudy
10:55 PM 71.6 °F - 55.4 °F 57% 30.03 in 10.0 mi Calm Calm - N/A   Mostly Cloudy
11:15 PM 71.6 °F - 55.4 °F 57% 30.03 in 10.0 mi Calm Calm - N/A   Overcast
11:35 PM 71.6 °F - 53.6 °F 53% 30.03 in 10.0 mi Calm Calm - N/A   Mostly Cloudy
11:55 PM 71.6 °F - 53.6 °F 53% 30.03 in 10.0 mi Calm Calm - N/A   Mostly Cloudy